Robstown, TX

8:12 AM CDT on May 25, 2018 (GMT -0500)
Robstown

Weather History for KRBO - December, 2012

Change the Weather History Date:

Monday, December 10, 2012

  Actual Average (KCRP) Record (KCRP)
Temperature  
Mean Temperature 60 °F -  
Max Temperature 73 °F 67 °F 89 °F (1993)
Min Temperature 47 °F 46 °F 21 °F (1978)
Degree Days  
Heating Degree Days 5    
Growing Degree Days 10 (Base 50)    
Moisture  
Dew Point 33 °F    
Average Humidity 44    
Maximum Humidity 91    
Minimum Humidity 23    
Precipitation  
Precipitation 0.00 in - - ()
Sea Level Pressure  
Sea Level Pressure 30.02 in    
Wind  
Wind Speed 13 mph (North)    
Max Wind Speed 30 mph    
Max Gust Speed 40 mph    
Visibility 10 miles    
Events      
Averages and records for this station are not official NWS values.
T = Trace of Precipitation, MM = Missing Value Source: NWS Daily Summary

Daily Weather History Graph

Daily Weather History Graph

Search for Another Location

Airport or City:

Astronomy

Dec. 10, 2012 Rise Set
Actual Time 7:11 AM CST 5:36 PM CST
Civil Twilight 6:45 AM CST 6:02 PM CST
Nautical Twilight 6:16 AM CST 6:31 PM CST
Astronomical Twilight 5:47 AM CST 6:59 PM CST
Moon 4:05 AM CST (12/10) 3:19 PM CST (12/10)
Length of Visible Light 11h 16m
Length of Day
10h 25m
Waning Crescent, 10% of the Moon is Illuminated
Dec 10
Waning Crescent
Dec 13
New
Dec 19
First Quarter
Dec 28
Full
Jan 4
Last Quarter

Hourly Weather History & Observations

Time (CST) Temp. Dew Point Humidity Pressure Visibility Wind Dir Wind Speed Gust Speed Precip Events Conditions
12:15 AM 73.4 °F 70.0 °F 89% 29.82 in 7.0 mi SSE 4.6 mph - N/A   Clear
12:35 AM 72.1 °F 69.3 °F 91% 29.81 in 7.0 mi SE 5.8 mph - N/A   Clear
12:55 AM 72.0 °F 69.3 °F 91% 29.82 in 7.0 mi Calm Calm - N/A   Mostly Cloudy
1:15 AM 72.3 °F 69.4 °F 91% 29.82 in 7.0 mi Calm Calm - N/A   Overcast
1:55 AM 72.5 °F 68.9 °F 88% 29.81 in 7.0 mi Calm Calm - N/A   Overcast
2:15 AM 72.7 °F 69.1 °F 88% 29.82 in 7.0 mi Calm Calm - N/A   Overcast
2:35 AM 72.7 °F 69.3 °F 89% 29.82 in 7.0 mi Calm Calm - N/A   Overcast
2:55 AM 72.7 °F 69.8 °F 91% 29.82 in 7.0 mi Calm Calm - N/A   Overcast
3:15 AM 71.8 °F 68.9 °F 91% 29.82 in 7.0 mi North 15.0 mph 19.6 mph N/A   Overcast
3:35 AM 65.5 °F 57.7 °F 76% 29.83 in 10.0 mi North 19.6 mph 24.2 mph N/A   Overcast
3:55 AM 63.9 °F 55.4 °F 74% 29.84 in 10.0 mi North 17.3 mph 21.9 mph N/A   Overcast
4:15 AM 62.6 °F 54.1 °F 74% 29.84 in 10.0 mi North 17.3 mph 24.2 mph N/A   Overcast
4:35 AM 61.5 °F 53.4 °F 75% 29.87 in 10.0 mi North 25.3 mph 31.1 mph N/A   Overcast
4:55 AM 60.4 °F 50.9 °F 71% 29.89 in 10.0 mi North 23.0 mph 33.4 mph N/A   Overcast
5:15 AM 59.9 °F 50.2 °F 70% 29.90 in 10.0 mi North 23.0 mph 33.4 mph N/A   Overcast
5:55 AM 59.9 °F 46.8 °F 62% 29.93 in 10.0 mi North 27.6 mph 35.7 mph N/A   Overcast
6:15 AM 59.2 °F 45.5 °F 60% 29.94 in 10.0 mi North 28.8 mph 33.4 mph N/A   Overcast
6:35 AM 58.5 °F 44.2 °F 59% 29.97 in 10.0 mi North 29.9 mph 40.3 mph N/A   Overcast
6:55 AM 57.9 °F 42.3 °F 56% 29.99 in 10.0 mi North 27.6 mph 40.3 mph N/A   Overcast
7:15 AM 54.7 °F 34.5 °F 47% 30.01 in 10.0 mi North 27.6 mph 34.5 mph N/A   Overcast
7:35 AM 52.9 °F 30.6 °F 43% 30.03 in 10.0 mi North 24.2 mph 34.5 mph N/A   Overcast
7:55 AM 51.8 °F 26.6 °F 38% 30.05 in 10.0 mi North 26.5 mph 38.0 mph N/A   Overcast
8:15 AM 51.3 °F 24.6 °F 35% 30.06 in 10.0 mi North 25.3 mph 34.5 mph N/A   Overcast
8:35 AM 51.4 °F 24.1 °F 34% 30.07 in 10.0 mi North 24.2 mph 31.1 mph N/A   Overcast
8:55 AM 51.8 °F 24.4 °F 34% 30.08 in 10.0 mi North 20.7 mph 28.8 mph N/A   Overcast
9:35 AM 52.2 °F 23.7 °F 33% 30.08 in 10.0 mi North 23.0 mph 28.8 mph N/A   Overcast
9:55 AM 52.3 °F 23.4 °F 32% 30.09 in 10.0 mi North 20.7 mph 29.9 mph N/A   Overcast
10:15 AM 52.7 °F 21.9 °F 30% 30.10 in 10.0 mi North 25.3 mph 32.2 mph N/A   Overcast
10:35 AM 52.7 °F 20.5 °F 28% 30.10 in 10.0 mi North 24.2 mph 29.9 mph N/A   Overcast
10:55 AM 52.5 °F 20.3 °F 28% 30.11 in 10.0 mi NNW 20.7 mph 25.3 mph N/A   Overcast
11:15 AM 52.7 °F 19.0 °F 27% 30.11 in 10.0 mi North 21.9 mph 29.9 mph N/A   Overcast
11:35 AM 53.4 °F 18.1 °F 25% 30.11 in 10.0 mi North 18.4 mph 24.2 mph N/A   Overcast
11:55 AM 54.0 °F 18.5 °F 25% 30.10 in 10.0 mi North 21.9 mph - N/A   Overcast
12:15 PM 55.0 °F 18.7 °F 24% 30.10 in 10.0 mi North 20.7 mph 27.6 mph N/A   Overcast
12:35 PM 55.6 °F 19.0 °F 24% 30.09 in 10.0 mi North 19.6 mph 26.5 mph N/A   Overcast
12:55 PM 56.8 °F 19.9 °F 24% 30.08 in 10.0 mi North 18.4 mph 25.3 mph N/A   Overcast
1:15 PM 57.7 °F 21.2 °F 24% 30.07 in 10.0 mi North 24.2 mph 28.8 mph N/A   Overcast
1:55 PM 59.4 °F 21.7 °F 23% 30.05 in 10.0 mi North 19.6 mph 27.6 mph N/A   Clear
2:15 PM 60.3 °F 22.1 °F 23% 30.05 in 10.0 mi NNW 15.0 mph - N/A   Clear
2:35 PM 60.3 °F 21.9 °F 23% 30.05 in 10.0 mi NNW 17.3 mph 24.2 mph N/A   Clear
2:55 PM 60.1 °F 22.3 °F 23% 30.05 in 10.0 mi North 18.4 mph 26.5 mph N/A   Clear
3:15 PM 59.4 °F 21.7 °F 23% 30.05 in 10.0 mi North 19.6 mph 26.5 mph N/A   Clear
3:35 PM 59.4 °F 21.7 °F 23% 30.04 in 10.0 mi North 17.3 mph 24.2 mph N/A   Clear
3:55 PM 59.9 °F 21.9 °F 23% 30.04 in 10.0 mi North 15.0 mph 21.9 mph N/A   Clear
4:15 PM 59.9 °F 22.1 °F 23% 30.04 in 10.0 mi NNW 15.0 mph 23.0 mph N/A   Clear
4:35 PM 59.9 °F 22.5 °F 24% 30.04 in 10.0 mi North 15.0 mph 20.7 mph N/A   Clear
4:55 PM 59.2 °F 22.5 °F 24% 30.04 in 10.0 mi North 11.5 mph - N/A   Clear
5:15 PM 58.5 °F 23.0 °F 26% 30.04 in 10.0 mi North 11.5 mph - N/A   Clear
5:35 PM 57.2 °F 23.2 °F 27% 30.05 in 10.0 mi North 8.1 mph - N/A   Clear
5:55 PM 56.5 °F 23.5 °F 28% 30.06 in 10.0 mi North 6.9 mph - N/A   Clear
6:15 PM 55.4 °F 23.4 °F 29% 30.06 in 10.0 mi NNE 4.6 mph - N/A   Clear
6:35 PM 54.3 °F 23.4 °F 30% 30.07 in 10.0 mi NNE 4.6 mph - N/A   Clear
6:55 PM 53.8 °F 23.5 °F 31% 30.08 in 10.0 mi NNE 4.6 mph - N/A   Clear
7:15 PM 53.1 °F 24.3 °F 33% 30.09 in 10.0 mi NNE 8.1 mph - N/A   Clear
7:35 PM 52.7 °F 24.8 °F 34% 30.09 in 10.0 mi NNE 9.2 mph - N/A   Clear
7:55 PM 52.0 °F 24.8 °F 35% 30.09 in 10.0 mi NNE 8.1 mph - N/A   Clear
8:15 PM 51.3 °F 25.3 °F 37% 30.09 in 10.0 mi NNE 9.2 mph - N/A   Clear
8:35 PM 50.9 °F 25.3 °F 37% 30.10 in 10.0 mi NNE 9.2 mph - N/A   Clear
8:55 PM 50.9 °F 24.8 °F 36% 30.11 in 10.0 mi NNE 9.2 mph - N/A   Clear
9:15 PM 50.2 °F 24.8 °F 37% 30.11 in 10.0 mi NNE 9.2 mph - N/A   Clear
9:35 PM 49.6 °F 24.8 °F 38% 30.11 in 10.0 mi NNE 8.1 mph - N/A   Clear
9:55 PM 48.9 °F 25.2 °F 40% 30.11 in 10.0 mi NNE 6.9 mph - N/A   Clear
10:15 PM 48.6 °F 25.3 °F 40% 30.12 in 10.0 mi NNE 6.9 mph - N/A   Clear
10:35 PM 48.0 °F 25.5 °F 41% 30.12 in 10.0 mi NNE 8.1 mph - N/A   Clear
10:55 PM 47.7 °F 25.3 °F 42% 30.13 in 10.0 mi NNE 6.9 mph - N/A   Clear
11:15 PM 47.7 °F 25.2 °F 41% 30.13 in 10.0 mi NNE 8.1 mph - N/A   Clear
11:55 PM 47.3 °F 24.6 °F 41% 30.12 in 10.0 mi NNE 9.2 mph - N/A   Clear